User: anonymous   Login
Location: Sawmill Trailhead
(33.5800°N, 116.4497°W)
Time: 20:08:02
(UTC-08:00)
Language:

Uosat F - Orbit

View from above orbital plane
View from above orbital plane
View from above satellite
View from above satellite

Ground track
Ground track

The orbit data is extracted from the following two-line orbital elements,

1 21575U 91050B   17344.61044829 +.00000013 +00000-0 +18439-4 0  9991
2 21575 098.7473 005.1392 0008144 130.0721 230.1182 14.40825349386487
Epoch (UTC): 10 December 2017 14:39:02
Eccentricity: 0.0008144
inclination: 98.7473°
perigee height: 750 km
apogee height: 761 km
right ascension of ascending node: 5.1392°
argument of perigee: 130.0721°
revolutions per day: 14.40825349
mean anomaly at epoch: 230.1182°
orbit number at epoch: 38648

The dashed part of the orbit path shows where the satellite is in the earth's shadow,  

DLR